TimeEDT,TemperatureF,Dew PointF,Humidity,Sea Level PressureIn,VisibilityMPH,Wind Direction,Wind SpeedMPH,Gust SpeedMPH,PrecipitationIn,Events,Conditions,WindDirDegrees,DateUTC
12:53 AM,34.0,19.9,56,29.91,10.0,WNW,5.8,-,N/A,,Mostly Cloudy,290,2013-03-23 04:53:00
1:53 AM,33.1,19.9,59,29.91,10.0,Variable,4.6,-,N/A,,Overcast,0,2013-03-23 05:53:00
2:53 AM,33.8,19.4,56,29.89,10.0,Variable,5.8,-,N/A,,Overcast,0,2013-03-23 06:53:00
3:53 AM,33.1,19.9,59,29.88,10.0,Calm,Calm,-,N/A,,Overcast,0,2013-03-23 07:53:00
4:53 AM,30.9,19.9,64,29.88,10.0,Variable,3.5,-,N/A,,Clear,0,2013-03-23 08:53:00
5:53 AM,32.0,19.0,59,29.90,10.0,WNW,4.6,-,N/A,,Mostly Cloudy,290,2013-03-23 09:53:00
6:53 AM,32.0,19.0,59,29.91,10.0,WNW,5.8,-,N/A,,Overcast,290,2013-03-23 10:53:00
7:53 AM,33.1,19.0,56,29.91,10.0,WNW,5.8,-,N/A,,Clear,290,2013-03-23 11:53:00
8:53 AM,36.0,19.0,50,29.91,10.0,WNW,10.4,17.3,N/A,,Clear,290,2013-03-23 12:53:00
9:53 AM,37.9,19.0,47,29.90,10.0,NW,11.5,21.9,N/A,,Clear,310,2013-03-23 13:53:00
10:53 AM,41.0,19.9,43,29.90,10.0,NW,13.8,19.6,N/A,,Mostly Cloudy,320,2013-03-23 14:53:00
11:53 AM,43.0,19.0,38,29.90,10.0,WNW,9.2,21.9,N/A,,Mostly Cloudy,290,2013-03-23 15:53:00
12:53 PM,45.0,18.0,34,29.88,10.0,WNW,12.7,23.0,N/A,,Mostly Cloudy,290,2013-03-23 16:53:00
1:53 PM,44.1,18.0,35,29.86,10.0,WNW,12.7,26.5,N/A,,Mostly Cloudy,300,2013-03-23 17:53:00
2:53 PM,44.1,18.0,35,29.85,10.0,NNW,19.6,27.6,N/A,,Partly Cloudy,330,2013-03-23 18:53:00
3:53 PM,44.1,17.1,34,29.85,10.0,NW,19.6,29.9,N/A,,Partly Cloudy,310,2013-03-23 19:53:00
4:53 PM,45.0,17.1,33,29.85,10.0,NW,13.8,29.9,N/A,,Clear,310,2013-03-23 20:53:00
5:53 PM,44.1,16.0,32,29.85,10.0,WNW,15.0,21.9,N/A,,Clear,300,2013-03-23 21:53:00
6:53 PM,43.0,16.0,34,29.87,10.0,NW,15.0,23.0,N/A,,Clear,320,2013-03-23 22:53:00
7:53 PM,41.0,16.0,36,29.89,10.0,NW,9.2,16.1,N/A,,Clear,310,2013-03-23 23:53:00
8:53 PM,39.9,16.0,38,29.91,10.0,NW,9.2,-,N/A,,Clear,310,2013-03-24 00:53:00
9:53 PM,39.0,17.1,41,29.92,10.0,NW,11.5,-,N/A,,Clear,320,2013-03-24 01:53:00
10:53 PM,37.9,17.1,43,29.95,10.0,NW,10.4,16.1,N/A,,Partly Cloudy,310,2013-03-24 02:53:00
11:53 PM,37.0,17.1,44,29.94,10.0,NNW,10.4,-,N/A,,Clear,330,2013-03-24 03:53:00